Location: ?????????
(54.7630°N, 39.4991°E)
Time: 21:11:35
(UTC+00:00)

Cosmos 2333 Rocket - Pass Details

Date: 14 April 2026
Orbit: 842 x 860 km, 70.8° (Epoch: 11 May)

Event Time Altitude Azimuth Distance (km) Brightness Sun altitude
Rises 17:24:52 0° 240° (WSW) 3,398 5.8 -8.8°
Reaches altitude 10° 17:27:28 10° 248° (WSW) 2,464 5.2 -9.2°
Maximum altitude 17:32:47 40° 318° (NW) 1,222 3.7 -9.8°
Drops below altitude 10° 17:38:07 10° 28° (NNE) 2,473 4.7 -10.5°
Sets 17:40:44 0° 35° (NE) 3,412 5.4 -10.8°
